BREEZE-M R/B, 41122

Orbit data source: Space-Track

BREEZE-M R/B, 41122 is space debris in GEO originally from a launch on Sun, 13 Dec 2015 UTC launched from the Tyuratam Missile And Space Complex (TTMTR). Debris objects in space refer to the collection of defunct objects orbiting the Earth. Examples of debris include non-operational satellites, rocket bodies, and fragments generated from explosions, collisions, or faulty payload assembly.

Not visible in the next 10 days
Identifier
41122, 2015-075B
Orbit
GEO
Country
Flag of CISCIS
Related business
Manufacturer
Khrunichev
Mission
Spacecraft
Bus & Motor
BRIZ, Unknown motor
Mass
~1,600 kg wet, 1,600 kg dry
Launch date (UTC)
2015-12-13 (11 years ago)
Launch vehicle
Unknown
Launch site
Tyuratam Missile And Space Complex (TTMTR)
Object type
Payload
Rocket body
Debris
Shape & HBR
Cyl, 2.0 m
Radar Cross Section
15.135 m², Medium (>0.1 m² and < 1m²)

Expand to show TLE details & history
Last TLE update: 3 days ago

TLE from 3 days ago
0 BREEZE-M R/B
1 41122U 15075B   26170.45860603 -.00000088  00000-0  00000-0 0  9993
2 41122   8.4809  58.7046 0337460 162.7748 198.2980  1.04639640 40227
Epoch: 2026-06-19T11:00Z
TLE epoch observation values (Epoch: 2026-06-19T11:00:23.560Z)
Latitude
Longitude
-14.14773°
Altitude
35,922.308 km
Speed
3.02 km/s
True Right ascension
03h 54m 33s
True Declination
0° 00' 00"
Sunlit
Object was in daylight at epoch
Visualization orbit readout
Latitude
Unknown
Longitude
Unknown
Altitude
Unknown
Speed
Unknown
Apparent Right ascension
Unknown
Apparent Declination
Unknown
Sunlit
N/A
Visualization observer readout
Local Sidereal Time
00:25:40
Azimuth
Unknown
Elevation
Unknown
Doppler factor
Unknown
Orbital elements
Apogee altitude
35,989.037 km
Perigee altitude
33,222.936 km
Semi-major axis
40,984.123 km
Eccentricity
0.03375
Inclination
8.4809°
RAAN
58.7046°
Arg. of periapsis
162.7748°
True anomaly
197.13082°
Mean anomaly
198.298°
Eccentric anomaly
197.70983°
Mean motion
0.26159 °/min
Orbital period
1,376.2 mins
BSTAR
0
Loading maneuver chart data...
Computing Atmospheric mass density...
Loading historical data...
Loading historical data...
Loading historical data...
Loading historical data...
Loading historical data...
Loading historical data...
Loading historical data...

Documentation

Showing up to 5 results
|